Regional Weather Roundup
Issued by NWS

Home | Current Version | Previous Version | Graphics & Text | Print | Product List | Glossary On
Versions: 1 2 3 4 5 6 7 8 9 10 11 12 13 14 15 16 17 18 19 20 21 22 23 24 25 26 27 28 29 30 31 32 33 34 35 36 37 38 39 40 41 42 43 44 45 46 47 48 49 50
725
ASUS43 KLMK 160510
RWRKY
KENTUCKY REGIONAL WEATHER ROUNDUP
NATIONAL WEATHER SERVICE LOUISVILLE KY
1200 AM EST SAT DEC 16 2017

NOTE "FAIR" INDICATES FEW OR NO CLOUDS BELOW 12,000 FEET
WITH NO SIGNIFICANT WEATHER AND/OR OBSTRUCTIONS TO VISIBILITY.

KYZ001>023-026-027-061>063-070>075-160600-
WESTERN AND SOUTH CENTRAL KENTUCKY

CITY           SKY/WX    TMP DP  RH WIND       PRES   REMARKS
PADUCAH        CLEAR     37  26  64 SW8       30.14R WCI  31
HENDERSON      CLEAR     34  26  72 S8        30.13S WCI  27
OWENSBORO      MOCLDY    35  26  69 S9        30.14S WCI  28
HOPKINSVILLE   CLEAR     35  24  62 S7        30.16S WCI  29
BOWLING GREEN  CLOUDY    33  23  66 S6        30.19R WCI  28
GLASGOW        CLEAR     32  23  68 S3        30.18S
$$

KYZ024-025-028>034-038-045-046-053-160600-
NORTH CENTRAL KENTUCKY

CITY           SKY/WX    TMP DP  RH WIND       PRES   REMARKS
LOUISVILLE/SDF CLOUDY    38  24  57 SW7       30.14S WCI  33
LOUISVILLE/LOU CLOUDY    33  25  72 S5        30.15R WCI  29
FORT KNOX      CLOUDY    35  23  61 S7        30.12S WCI  30
$$

KYZ035>037-039>044-047>052-055>060-089>105-160600-
NORTHEAST KENTUCKY

CITY           SKY/WX    TMP DP  RH WIND       PRES   REMARKS
LEXINGTON      CLEAR     30  21  69 S8        30.15R WCI  22
COVINGTON      CLOUDY    32  24  72 S6        30.10R WCI  26
FRANKFORT      MOCLDY    31  21  66 S6        30.13R WCI  25
$$

KYZ054-064>069-076>088-106>120-160600-
SOUTHEAST KENTUCKY

CITY           SKY/WX    TMP DP  RH WIND       PRES   REMARKS
JACKSON        CLOUDY    32  21  64 SW5       30.15R WCI  27
LONDON         CLOUDY    30  20  66 S3        30.17R
SOMERSET       CLOUDY    32  23  69 S5        30.20S WCI  27
MIDDLESBORO    CLOUDY    31  25  77 CALM      30.21S
MONTICELLO     CLOUDY    34  23  64 VRB3      30.21R
$$





USA.gov is the U.S. government's official web portal to all federal, state and local government web resources and services.